KLM14D UKBB-EHAM

Flight info

Callsign KLM14D
Flight time N/A
Altitude 38000
Route KAFEL T731 OKROT M70 TOLPA/N0445F380 DCT LUGUG DCT POLON L980 ADLIR DCT HLZ DCT ROBEG DCT NORKU
Aircraft B38M/M-SDFGHIRWXYZ/LB1

Departure

Time N/A
Airport Boryspil International Airport (UKBB)

Arrival

Time 2026-05-07 19:56
Airport Amsterdam Airport Schiphol (EHAM)
Time Latitude Longitude Altitude Speed Heading
2026-05-07 17:53 50.76177 27.03999 35193 ft 447 kts 283°
2026-05-07 17:54 50.77008 26.99271 35387 ft 447 kts 283°
2026-05-07 17:54 50.77835 26.94542 35574 ft 446 kts 283°
2026-05-07 17:54 50.78660 26.89817 35761 ft 446 kts 283°
2026-05-07 17:54 50.79484 26.85093 35947 ft 446 kts 283°
2026-05-07 17:55 50.80306 26.80366 36105 ft 446 kts 283°
2026-05-07 17:55 50.81124 26.75644 36300 ft 445 kts 283°
2026-05-07 17:55 50.81939 26.70924 36464 ft 445 kts 283°
2026-05-07 17:55 50.82754 26.66197 36621 ft 446 kts 283°
2026-05-07 17:56 50.83567 26.61468 36768 ft 446 kts 283°
2026-05-07 17:56 50.84379 26.56734 36916 ft 446 kts 283°
2026-05-07 17:56 50.85189 26.51997 37060 ft 446 kts 283°
2026-05-07 17:56 50.85997 26.47260 37202 ft 446 kts 283°
2026-05-07 17:57 50.86803 26.42521 37342 ft 446 kts 283°
2026-05-07 17:57 50.87336 26.39379 37442 ft 446 kts 283°
2026-05-07 17:57 50.88409 26.33038 37624 ft 446 kts 283°
2026-05-07 17:57 50.89209 26.28293 37777 ft 446 kts 282°
2026-05-07 17:58 50.90007 26.23550 37910 ft 446 kts 282°
2026-05-07 17:58 50.90801 26.18822 37924 ft 442 kts 282°
2026-05-07 17:58 50.92342 26.09611 37920 ft 424 kts 282°
2026-05-07 17:59 50.93844 26.00546 37930 ft 428 kts 282°
2026-05-07 17:59 50.95363 25.91369 37932 ft 432 kts 282°
2026-05-07 18:00 50.96877 25.82162 37950 ft 431 kts 281°
2026-05-07 18:00 50.98381 25.72963 37923 ft 430 kts 281°
2026-05-07 18:01 50.99876 25.63770 37927 ft 431 kts 281°
2026-05-07 18:01 51.01365 25.54560 37923 ft 431 kts 281°
2026-05-07 18:02 51.03584 25.40745 37920 ft 430 kts 281°
2026-05-07 18:03 51.05055 25.31521 37934 ft 432 kts 280°
2026-05-07 18:03 51.06527 25.22246 37937 ft 433 kts 280°
2026-05-07 18:04 51.07990 25.12973 37931 ft 432 kts 280°
2026-05-07 18:04 51.09443 25.03706 37925 ft 431 kts 280°
2026-05-07 18:05 51.10887 24.94448 37920 ft 431 kts 280°
2026-05-07 18:05 51.12324 24.85175 37928 ft 432 kts 279°
2026-05-07 18:06 51.13759 24.75874 37922 ft 432 kts 279°
2026-05-07 18:06 51.15183 24.66580 37921 ft 432 kts 279°
2026-05-07 18:07 51.16599 24.57290 37922 ft 431 kts 279°
2026-05-07 18:07 51.17770 24.49566 37925 ft 432 kts 279°
2026-05-07 18:08 51.19174 24.40254 37915 ft 432 kts 279°
2026-05-07 18:08 51.20570 24.30943 37915 ft 431 kts 279°
2026-05-07 18:09 51.21956 24.21643 37909 ft 431 kts 279°
2026-05-07 18:09 51.23326 24.12390 37913 ft 431 kts 279°
2026-05-07 18:10 51.24699 24.03071 37914 ft 431 kts 279°
2026-05-07 18:10 51.26064 23.93743 37917 ft 431 kts 279°
2026-05-07 18:11 51.27438 23.84420 37919 ft 432 kts 279°
2026-05-07 18:11 51.28950 23.75104 37924 ft 434 kts 281°
2026-05-07 18:12 51.30461 23.65763 37927 ft 434 kts 279°
2026-05-07 18:12 51.31952 23.56406 37926 ft 434 kts 280°
2026-05-07 18:13 51.33449 23.47042 37918 ft 435 kts 279°
2026-05-07 18:13 51.34931 23.37658 37922 ft 435 kts 279°
2026-05-07 18:14 51.36412 23.28262 37923 ft 436 kts 279°
2026-05-07 18:14 51.37884 23.18853 37931 ft 435 kts 279°
2026-05-07 18:15 51.39348 23.09450 37960 ft 436 kts 279°
2026-05-07 18:15 51.40809 23.00002 37921 ft 438 kts 279°
2026-05-07 18:16 51.42266 22.90539 37922 ft 437 kts 279°
2026-05-07 18:16 51.43713 22.81073 37923 ft 437 kts 279°
2026-05-07 18:17 51.45151 22.71611 37923 ft 437 kts 279°
2026-05-07 18:17 51.46584 22.62130 37935 ft 438 kts 279°
2026-05-07 18:18 51.48014 22.52616 37943 ft 439 kts 279°
2026-05-07 18:18 51.49440 22.43065 37946 ft 438 kts 278°
2026-05-07 18:19 51.50846 22.33590 37930 ft 438 kts 278°
2026-05-07 18:19 51.52250 22.24071 37933 ft 438 kts 278°
2026-05-07 18:20 51.53649 22.14526 37924 ft 440 kts 278°
2026-05-07 18:20 51.55046 22.04943 37942 ft 441 kts 278°
2026-05-07 18:21 51.56433 21.95367 37941 ft 440 kts 278°
2026-05-07 18:21 51.57810 21.85794 37946 ft 440 kts 278°
2026-05-07 18:22 51.59182 21.76206 37947 ft 440 kts 278°
2026-05-07 18:22 51.60547 21.66592 37948 ft 441 kts 278°
2026-05-07 18:23 51.61905 21.56981 37940 ft 440 kts 278°
2026-05-07 18:23 51.63250 21.47385 37310 ft 439 kts 281°
2026-05-07 18:23 51.63920 21.42597 37936 ft 437 kts 278°
2026-05-07 18:24 51.64580 21.37862 37962 ft 433 kts 278°
2026-05-07 18:24 51.65874 21.28499 37976 ft 439 kts 278°
2026-05-07 18:25 51.67207 21.18827 37976 ft 443 kts 278°
2026-05-07 18:25 51.68531 21.09154 37977 ft 441 kts 278°
2026-05-07 18:26 51.69841 20.99499 37979 ft 441 kts 278°
2026-05-07 18:26 51.71147 20.89821 37987 ft 442 kts 278°
2026-05-07 18:27 51.72449 20.80112 37982 ft 443 kts 278°
2026-05-07 18:27 51.73742 20.70397 37977 ft 442 kts 278°
2026-05-07 18:28 51.75024 20.60707 37972 ft 441 kts 278°
2026-05-07 18:28 51.76288 20.51080 37973 ft 442 kts 278°
2026-05-07 18:29 51.77563 20.41310 37974 ft 442 kts 277°
2026-05-07 18:29 51.78821 20.31597 37988 ft 442 kts 277°
2026-05-07 18:30 51.80063 20.21940 37983 ft 442 kts 277°
2026-05-07 18:30 51.81304 20.12229 37981 ft 441 kts 277°
2026-05-07 18:31 51.82525 20.02606 37991 ft 442 kts 277°
2026-05-07 18:31 51.83743 19.92940 37995 ft 442 kts 277°
2026-05-07 18:32 51.84968 19.83145 38023 ft 441 kts 277°
2026-05-07 18:32 51.86175 19.73421 38012 ft 446 kts 277°
2026-05-07 18:33 51.87388 19.63601 38000 ft 443 kts 277°
2026-05-07 18:33 51.88584 19.53819 37995 ft 443 kts 277°
2026-05-07 18:34 51.89776 19.44007 38002 ft 444 kts 277°
2026-05-07 18:34 51.90961 19.34188 38004 ft 444 kts 277°
2026-05-07 18:35 51.92137 19.24365 38008 ft 444 kts 277°
2026-05-07 18:35 51.93302 19.14557 38008 ft 443 kts 276°
2026-05-07 18:36 51.94459 19.04746 38019 ft 443 kts 276°
2026-05-07 18:36 51.95609 18.94922 38019 ft 444 kts 276°
2026-05-07 18:37 51.96751 18.85090 38016 ft 446 kts 276°
2026-05-07 18:37 51.97896 18.75154 38029 ft 449 kts 276°
2026-05-07 18:38 51.99015 18.65379 38027 ft 446 kts 276°
2026-05-07 18:38 52.00137 18.55475 38021 ft 447 kts 276°
2026-05-07 18:39 52.01256 18.45546 38028 ft 448 kts 276°
2026-05-07 18:39 52.02368 18.35580 38040 ft 450 kts 276°
2026-05-07 18:40 52.03479 18.25562 38043 ft 450 kts 276°
2026-05-07 18:40 52.04577 18.15569 38037 ft 449 kts 276°
2026-05-07 18:41 52.05664 18.05594 38045 ft 449 kts 276°
2026-05-07 18:41 52.06744 17.95594 38048 ft 449 kts 276°
2026-05-07 18:42 52.07817 17.85587 38050 ft 450 kts 276°
2026-05-07 18:42 52.08882 17.75568 38050 ft 449 kts 276°
2026-05-07 18:43 52.09936 17.65561 38047 ft 449 kts 276°
2026-05-07 18:43 52.10983 17.55541 38048 ft 449 kts 276°
2026-05-07 18:44 52.12022 17.45515 38059 ft 449 kts 276°
2026-05-07 18:44 52.13053 17.35477 38058 ft 450 kts 276°
2026-05-07 18:45 52.14075 17.25437 38060 ft 450 kts 276°
2026-05-07 18:45 52.15082 17.15455 38064 ft 450 kts 276°
2026-05-07 18:46 52.16095 17.05326 38065 ft 450 kts 276°
2026-05-07 18:46 52.17093 16.95256 38085 ft 451 kts 276°
2026-05-07 18:47 52.18078 16.85227 38071 ft 452 kts 276°
2026-05-07 18:47 52.19062 16.75116 38082 ft 452 kts 276°
2026-05-07 18:48 52.20045 16.64923 38085 ft 452 kts 276°
2026-05-07 18:48 52.21012 16.54799 38086 ft 452 kts 276°
2026-05-07 18:49 52.21971 16.44662 38057 ft 453 kts 276°
2026-05-07 18:49 52.22922 16.34524 38066 ft 452 kts 276°
2026-05-07 18:50 52.23855 16.24473 38064 ft 451 kts 276°
2026-05-07 18:50 52.24634 16.16002 38063 ft 451 kts 276°
2026-05-07 18:51 52.25558 16.05875 38060 ft 451 kts 276°
2026-05-07 18:51 52.26472 15.95751 38079 ft 451 kts 276°
2026-05-07 18:52 52.27379 15.85603 38082 ft 452 kts 276°
2026-05-07 18:52 52.28279 15.75439 38084 ft 452 kts 276°
2026-05-07 18:53 52.29170 15.65273 38086 ft 452 kts 276°
2026-05-07 18:53 52.30051 15.55116 38084 ft 451 kts 276°
2026-05-07 18:54 52.30923 15.44953 38076 ft 453 kts 276°
2026-05-07 18:54 52.31790 15.34739 38080 ft 454 kts 276°
2026-05-07 18:55 52.32650 15.24515 38084 ft 454 kts 276°
2026-05-07 18:55 52.33499 15.14304 38084 ft 453 kts 276°
2026-05-07 18:56 52.34338 15.04097 38088 ft 452 kts 276°
2026-05-07 18:56 52.35169 14.93892 38091 ft 453 kts 276°
2026-05-07 18:57 52.35993 14.83651 38093 ft 455 kts 276°
2026-05-07 18:57 52.36809 14.73394 38090 ft 454 kts 276°
2026-05-07 18:58 52.37615 14.63156 38088 ft 453 kts 276°
2026-05-07 18:58 52.37879 14.52891 38093 ft 452 kts 266°
2026-05-07 18:59 52.37830 14.42605 38097 ft 453 kts 271°
2026-05-07 18:59 52.38023 14.32293 38096 ft 453 kts 269°
2026-05-07 19:00 52.38048 14.21988 38099 ft 453 kts 269°
2026-05-07 19:00 52.38158 14.11680 38100 ft 453 kts 269°
2026-05-07 19:01 52.38208 14.01374 38110 ft 453 kts 269°
2026-05-07 19:01 52.38275 13.91062 38097 ft 453 kts 269°
2026-05-07 19:02 52.38320 13.80738 38098 ft 453 kts 269°
2026-05-07 19:02 52.38362 13.70350 38099 ft 453 kts 269°
2026-05-07 19:03 52.38393 13.60104 38100 ft 453 kts 269°
2026-05-07 19:03 52.38416 13.49718 38121 ft 453 kts 269°
2026-05-07 19:04 52.38429 13.39400 38102 ft 453 kts 269°
2026-05-07 19:04 52.38433 13.29086 38103 ft 453 kts 269°
2026-05-07 19:05 52.38429 13.18853 38094 ft 453 kts 269°
2026-05-07 19:05 52.38415 13.08558 38088 ft 452 kts 269°
2026-05-07 19:06 52.38393 12.98258 38101 ft 453 kts 269°
2026-05-07 19:06 52.38343 12.82849 38102 ft 452 kts 269°
2026-05-07 19:07 52.38298 12.72558 38100 ft 452 kts 269°
2026-05-07 19:07 52.38244 12.62268 38099 ft 452 kts 269°
2026-05-07 19:08 52.38181 12.51919 38099 ft 452 kts 268°
2026-05-07 19:08 52.38110 12.41627 38106 ft 452 kts 268°
2026-05-07 19:09 52.38030 12.31403 38105 ft 453 kts 268°
2026-05-07 19:09 52.37940 12.21034 38107 ft 452 kts 268°
2026-05-07 19:10 52.37842 12.10810 38102 ft 452 kts 268°
2026-05-07 19:10 52.37734 12.00517 38102 ft 452 kts 268°
2026-05-07 19:11 52.37618 11.90195 38104 ft 452 kts 268°
2026-05-07 19:11 52.37492 11.79863 38106 ft 453 kts 268°
2026-05-07 19:12 52.37357 11.69522 38113 ft 453 kts 268°
2026-05-07 19:12 52.37214 11.59229 38109 ft 454 kts 268°
2026-05-07 19:13 52.37062 11.48916 38110 ft 453 kts 268°
2026-05-07 19:13 52.36899 11.38550 38105 ft 451 kts 268°
2026-05-07 19:14 52.36731 11.28372 38106 ft 451 kts 268°
2026-05-07 19:14 52.36551 11.18039 38110 ft 452 kts 268°
2026-05-07 19:15 52.36364 11.07753 38114 ft 452 kts 268°
2026-05-07 19:15 52.36167 10.97473 38111 ft 452 kts 268°
2026-05-07 19:16 52.35963 10.87279 38106 ft 450 kts 267°
2026-05-07 19:16 52.35750 10.77063 38101 ft 449 kts 267°
2026-05-07 19:17 52.35527 10.66839 38102 ft 450 kts 267°
2026-05-07 19:17 52.35296 10.56607 38104 ft 450 kts 267°
2026-05-07 19:18 52.35056 10.46375 38103 ft 450 kts 267°
2026-05-07 19:18 52.34808 10.36168 38108 ft 449 kts 267°
2026-05-07 19:19 52.34551 10.25968 38112 ft 449 kts 267°
2026-05-07 19:19 52.34285 10.15766 38113 ft 449 kts 267°
2026-05-07 19:20 52.34010 10.05557 38114 ft 449 kts 266°
2026-05-07 19:20 52.33727 9.95347 38105 ft 449 kts 266°
2026-05-07 19:21 52.33435 9.85147 38110 ft 449 kts 266°
2026-05-07 19:21 52.33134 9.74952 38108 ft 449 kts 266°
2026-05-07 19:22 52.32822 9.64700 38107 ft 449 kts 266°
2026-05-07 19:22 52.32504 9.54516 38108 ft 449 kts 266°
2026-05-07 19:23 52.32177 9.44323 38107 ft 449 kts 266°
2026-05-07 19:23 52.31841 9.34145 38109 ft 449 kts 266°
2026-05-07 19:24 52.31496 9.23961 38106 ft 449 kts 266°
2026-05-07 19:24 52.31143 9.13787 38103 ft 448 kts 266°
2026-05-07 19:25 52.30781 9.03612 38102 ft 448 kts 266°
2026-05-07 19:25 52.30411 8.93446 38103 ft 448 kts 266°
2026-05-07 19:26 52.30032 8.83279 38110 ft 448 kts 266°
2026-05-07 19:26 52.29644 8.73126 38111 ft 448 kts 265°
2026-05-07 19:27 52.29315 8.64689 38113 ft 448 kts 265°
2026-05-07 19:27 52.28847 8.52933 38112 ft 448 kts 265°
2026-05-07 19:28 52.28502 8.44432 38117 ft 448 kts 265°
2026-05-07 19:28 52.28012 8.32640 38122 ft 448 kts 265°
2026-05-07 19:29 52.27651 8.24140 38116 ft 448 kts 265°
2026-05-07 19:29 52.27433 8.19071 37876 ft 448 kts 265°
2026-05-07 19:29 52.27213 8.14005 37389 ft 448 kts 265°
2026-05-07 19:30 52.26991 8.08925 36660 ft 450 kts 265°
2026-05-07 19:30 52.26765 8.03828 35958 ft 451 kts 265°
2026-05-07 19:30 52.26536 7.98718 35245 ft 451 kts 265°
2026-05-07 19:30 52.26307 7.93622 34354 ft 449 kts 265°
2026-05-07 19:31 52.26076 7.88564 33397 ft 444 kts 265°
2026-05-07 19:31 52.25846 7.83566 32415 ft 439 kts 265°
2026-05-07 19:31 52.25617 7.78643 31623 ft 432 kts 265°
2026-05-07 19:31 52.25388 7.73759 30925 ft 433 kts 265°
2026-05-07 19:32 52.25156 7.68859 30291 ft 432 kts 265°
2026-05-07 19:32 52.24925 7.63998 29561 ft 428 kts 265°
2026-05-07 19:32 52.24693 7.59184 28820 ft 424 kts 265°
2026-05-07 19:32 52.24461 7.54410 28093 ft 420 kts 265°
2026-05-07 19:33 52.24229 7.49682 27385 ft 416 kts 265°
2026-05-07 19:33 52.23998 7.44990 26690 ft 413 kts 265°
2026-05-07 19:33 52.23767 7.40341 26012 ft 410 kts 265°
2026-05-07 19:33 52.23536 7.35730 25357 ft 406 kts 265°
2026-05-07 19:34 52.23305 7.31165 24773 ft 401 kts 265°
2026-05-07 19:34 52.23076 7.26658 24194 ft 397 kts 265°
2026-05-07 19:34 52.22847 7.22199 23626 ft 393 kts 265°
2026-05-07 19:34 52.22619 7.17783 22959 ft 389 kts 265°
2026-05-07 19:35 52.22391 7.13410 22303 ft 385 kts 265°
2026-05-07 19:35 52.22164 7.09076 21662 ft 382 kts 265°
2026-05-07 19:35 52.21939 7.04821 21573 ft 368 kts 265°
2026-05-07 19:35 52.21722 7.00677 21602 ft 370 kts 267°
2026-05-07 19:36 52.22072 6.96480 21633 ft 383 kts 291°
2026-05-07 19:36 52.23422 6.92740 21623 ft 383 kts 308°
2026-05-07 19:36 52.25213 6.89536 21607 ft 383 kts 314°
2026-05-07 19:36 52.27115 6.86464 21607 ft 386 kts 313°
2026-05-07 19:37 52.28918 6.83237 21606 ft 383 kts 308°
2026-05-07 19:37 52.30537 6.79787 21597 ft 382 kts 305°
2026-05-07 19:37 52.32149 6.76327 21602 ft 383 kts 307°
2026-05-07 19:37 52.33848 6.72966 21601 ft 384 kts 309°
2026-05-07 19:38 52.35572 6.69617 21493 ft 387 kts 308°
2026-05-07 19:38 52.37273 6.66187 20939 ft 385 kts 307°
2026-05-07 19:38 52.38925 6.62793 20409 ft 377 kts 308°
2026-05-07 19:38 52.40558 6.59482 19889 ft 372 kts 308°
2026-05-07 19:39 52.42199 6.56186 19389 ft 375 kts 308°
2026-05-07 19:39 52.43838 6.52875 18903 ft 372 kts 308°
2026-05-07 19:39 52.45448 6.49599 18424 ft 367 kts 308°
2026-05-07 19:39 52.46812 6.46104 17915 ft 365 kts 288°
2026-05-07 19:40 52.47326 6.42042 17444 ft 364 kts 275°
2026-05-07 19:40 52.47461 6.37923 16935 ft 359 kts 270°
2026-05-07 19:40 52.47501 6.33856 16409 ft 355 kts 271°
2026-05-07 19:40 52.47648 6.29843 15872 ft 351 kts 275°
2026-05-07 19:41 52.47907 6.25832 15343 ft 347 kts 275°
2026-05-07 19:41 52.48133 6.21905 14821 ft 345 kts 274°
2026-05-07 19:41 52.48305 6.17979 14309 ft 344 kts 273°
2026-05-07 19:41 52.48478 6.14071 13799 ft 343 kts 274°
2026-05-07 19:42 52.48670 6.10187 13243 ft 340 kts 274°
2026-05-07 19:42 52.48862 6.06345 12687 ft 336 kts 274°
2026-05-07 19:42 52.49042 6.02541 12142 ft 332 kts 274°
2026-05-07 19:42 52.49217 5.98782 11603 ft 329 kts 275°
2026-05-07 19:43 52.49393 5.95047 11076 ft 328 kts 274°
2026-05-07 19:43 52.49568 5.91325 10563 ft 327 kts 274°
2026-05-07 19:43 52.49741 5.87610 10057 ft 326 kts 274°
2026-05-07 19:43 52.49912 5.83903 9503 ft 325 kts 274°
2026-05-07 19:44 52.50081 5.80213 8956 ft 324 kts 274°
2026-05-07 19:44 52.50249 5.76532 8392 ft 323 kts 274°
2026-05-07 19:44 52.50415 5.72863 7877 ft 322 kts 273°
2026-05-07 19:44 52.50579 5.69209 7343 ft 321 kts 273°
2026-05-07 19:45 52.50740 5.65581 7008 ft 314 kts 273°
2026-05-07 19:45 52.50896 5.62087 6982 ft 302 kts 273°
2026-05-07 19:45 52.51020 5.58585 6992 ft 314 kts 266°
2026-05-07 19:45 52.50425 5.55194 6967 ft 311 kts 239°
2026-05-07 19:46 52.49138 5.52371 6814 ft 304 kts 226°
2026-05-07 19:46 52.47688 5.49855 6803 ft 306 kts 225°
2026-05-07 19:46 52.46248 5.47259 6816 ft 308 kts 229°
2026-05-07 19:46 52.44919 5.44539 6803 ft 304 kts 231°
2026-05-07 19:47 52.43604 5.41796 6803 ft 307 kts 230°
2026-05-07 19:47 52.42258 5.39104 6665 ft 307 kts 229°
2026-05-07 19:47 52.40884 5.36401 6289 ft 309 kts 229°
2026-05-07 19:47 52.39523 5.33695 5994 ft 305 kts 230°
2026-05-07 19:48 52.38204 5.31054 5980 ft 296 kts 230°
2026-05-07 19:48 52.36877 5.28408 5995 ft 306 kts 230°
2026-05-07 19:48 52.35522 5.25719 5805 ft 308 kts 229°
2026-05-07 19:48 52.34162 5.23019 5424 ft 307 kts 230°
2026-05-07 19:49 52.32804 5.20325 5041 ft 307 kts 230°
2026-05-07 19:49 52.31449 5.17639 4654 ft 306 kts 230°
2026-05-07 19:49 52.30096 5.14960 4260 ft 306 kts 230°
2026-05-07 19:49 52.28743 5.12286 3871 ft 305 kts 229°
2026-05-07 19:50 52.27391 5.09616 3487 ft 305 kts 230°
2026-05-07 19:50 52.26041 5.06952 3105 ft 304 kts 230°
2026-05-07 19:50 52.24655 5.04360 2964 ft 288 kts 219°
2026-05-07 19:50 52.23083 5.02623 2959 ft 262 kts 210°
2026-05-07 19:51 52.21574 5.01157 2973 ft 245 kts 209°
2026-05-07 19:51 52.20121 4.99766 2974 ft 241 kts 209°
2026-05-07 19:51 52.18661 4.98347 2971 ft 245 kts 209°
2026-05-07 19:51 52.17210 4.96928 2984 ft 241 kts 209°
2026-05-07 19:52 52.15790 4.95546 2988 ft 241 kts 210°
2026-05-07 19:52 52.14323 4.94122 2984 ft 243 kts 210°
2026-05-07 19:52 52.12871 4.92711 2987 ft 243 kts 210°
2026-05-07 19:52 52.11546 4.91036 2994 ft 244 kts 237°
2026-05-07 19:53 52.11022 4.88455 3030 ft 249 kts 265°
2026-05-07 19:53 52.10999 4.85623 3011 ft 243 kts 272°
2026-05-07 19:53 52.11060 4.82987 3016 ft 230 kts 271°
2026-05-07 19:53 52.11386 4.80530 3007 ft 225 kts 302°
2026-05-07 19:54 52.12538 4.78842 2885 ft 225 kts 331°
2026-05-07 19:54 52.13921 4.77713 2638 ft 212 kts 337°
2026-05-07 19:54 52.15197 4.76773 2366 ft 190 kts 341°
2026-05-07 19:54 52.16434 4.76598 2094 ft 179 kts
2026-05-07 19:55 52.17701 4.76695 1995 ft 180 kts
2026-05-07 19:55 52.18948 4.76794 1991 ft 178 kts
2026-05-07 19:55 52.20205 4.76909 1770 ft 181 kts
2026-05-07 19:55 52.21428 4.77020 1520 ft 173 kts
2026-05-07 19:56 52.22586 4.77124 1253 ft 155 kts
2026-05-07 19:56 52.23600 4.77225 828 ft 141 kts
2026-05-07 19:56 52.24626 4.77320 544 ft 151 kts
2026-05-07 19:56 52.25310 4.77381 794 ft 0 kts
2026-05-07 19:57 52.25829 4.77466 1019 ft 147 kts
2026-05-07 19:57 52.26854 4.77526 570 ft 153 kts
2026-05-07 19:57 52.27930 4.77601 303 ft 154 kts
2026-05-07 19:57 52.29025 4.77718 54 ft 149 kts
2026-05-07 19:58 52.29949 4.77820 -2 ft 121 kts
2026-05-07 19:58 52.30631 4.77881 0 ft 71 kts
2026-05-07 19:58 52.30944 4.77815 -2 ft 25 kts 333°
2026-05-07 19:58 52.31036 4.77741 0 ft 0 kts 332°
2026-05-07 20:00 52.31044 4.77734 0 ft 2 kts 332°
2026-05-07 20:00 52.31056 4.77723 0 ft 3 kts 332°
2026-05-07 20:01 52.31079 4.77704 1 ft 5 kts 332°
2026-05-07 20:01 52.31117 4.77671 0 ft 7 kts 332°
2026-05-07 20:01 52.31146 4.77620 0 ft 6 kts 300°
2026-05-07 20:01 52.31146 4.77547 0 ft 7 kts 249°
2026-05-07 20:02 52.31123 4.77506 -19 ft 8 kts 211°
2026-05-07 20:02 52.31042 4.77488 0 ft 10 kts 183°
2026-05-07 20:02 52.30964 4.77481 0 ft 12 kts 183°
2026-05-07 20:02 52.30904 4.77475 0 ft 13 kts 183°
2026-05-07 20:03 52.30838 4.77425 0 ft 9 kts 255°
2026-05-07 20:03 52.30841 4.77330 0 ft 6 kts 294°
2026-05-07 20:03 52.30875 4.77301 0 ft 5 kts 352°
2026-05-07 20:03 52.30897 4.77303 0 ft 0 kts
2026-05-07 20:04 52.30891 4.77302 0 ft 0 kts
2026-05-07 20:04 52.30897 4.77303 0 ft 0 kts